| time (UTC) | temp C | wind direction | speed KPH | gust KPH | rain 1hr cm | rain 24hr cm | rain mn cm | humidity % | barometer mb |
| 20260504151004 | 13 | 339 | 4.8 | 8.0 | 0.00 | 0.00 | 0.00 | 54 | 1002.3 |
| 20260504141003 | 13 | 314 | 9.7 | 14.5 | 0.00 | 0.00 | 0.00 | 58 | 1001.6 |
| 20260504082003 | 14 | 243 | 8.0 | 12.9 | 0.00 | 0.00 | 0.00 | 44 | 997.8 |
| 20260504081003 | 13 | 211 | 8.0 | 8.0 | 0.00 | 0.00 | 0.00 | 45 | 998.0 |
| 20260504050006 | 13 | 214 | 1.6 | 3.2 | 0.00 | 0.00 | 0.00 | 41 | 1002.0 |
| 20260504045004 | 13 | 240 | 0.0 | 3.2 | 0.00 | 0.00 | 0.00 | 41 | 1002.1 |
| 20260504044004 | 13 | 221 | 1.6 | 3.2 | 0.00 | 0.00 | 0.00 | 40 | 1002.2 |
| 20260504043003 | 13 | 217 | 1.6 | 4.8 | 0.00 | 0.00 | 0.00 | 41 | 1002.4 |
| 20260504042003 | 13 | 205 | 0.0 | 3.2 | 0.00 | 0.00 | 0.00 | 41 | 1002.6 |
| 20260504041004 | 13 | 224 | 1.6 | 6.4 | 0.00 | 0.00 | 0.00 | 41 | 1002.8 |
| 20260504040005 | 14 | 211 | 1.6 | 3.2 | 0.00 | 0.00 | 0.00 | 40 | 1002.9 |
| 20260504035003 | 14 | 246 | 1.6 | 6.4 | 0.00 | 0.00 | 0.00 | 40 | 1003.1 |
| 20260504034004 | 14 | 223 | 3.2 | 6.4 | 0.00 | 0.00 | 0.00 | 41 | 1003.4 |
| 20260504033004 | 14 | 267 | 1.6 | 3.2 | 0.00 | 0.00 | 0.00 | 42 | 1003.6 |
| 20260504032004 | 14 | 275 | 0.0 | 0.0 | 0.00 | 0.00 | 0.00 | 43 | 1003.8 |
| 20260504031005 | 14 | 276 | 0.0 | 3.2 | 0.00 | 0.00 | 0.00 | 42 | 1004.0 |
| 20260504030004 | 15 | 276 | 0.0 | 0.0 | 0.00 | 0.00 | 0.00 | 41 | 1004.0 |
| 20260504025005 | 15 | 276 | 0.0 | 0.0 | 0.00 | 0.00 | 0.00 | 40 | 1004.2 |
| 20260504024004 | 15 | 276 | 0.0 | 0.0 | 0.00 | 0.00 | 0.00 | 36 | 1004.3 |
| 20260504023004 | 16 | 276 | 0.0 | 0.0 | 0.00 | 0.00 | 0.00 | 36 | 1004.3 |
| 20260504022003 | 17 | 276 | 0.0 | 0.0 | 0.00 | 0.00 | 0.00 | 34 | 1004.4 |
| 20260504021004 | 17 | 276 | 0.0 | 0.0 | 0.00 | 0.00 | 0.00 | 33 | 1004.5 |
| 20260504020004 | 18 | 276 | 0.0 | 0.0 | 0.00 | 0.00 | 0.00 | 31 | 1004.5 |
| 20260504015003 | 18 | 276 | 0.0 | 0.0 | 0.00 | 0.00 | 0.00 | 30 | 1004.6 |
| 20260504014003 | 18 | 276 | 0.0 | 1.6 | 0.00 | 0.00 | 0.00 | 29 | 1004.8 |
| 20260504013003 | 19 | 315 | 0.0 | 0.0 | 0.00 | 0.00 | 0.00 | 29 | 1004.9 |
| 20260504012003 | 20 | 279 | 1.6 | 8.0 | 0.00 | 0.00 | 0.00 | 28 | 1004.9 |
| 20260504011003 | 20 | 281 | 1.6 | 4.8 | 0.00 | 0.00 | 0.00 | 28 | 1004.9 |
| 20260504010004 | 20 | 250 | 0.0 | 0.0 | 0.00 | 0.00 | 0.00 | 28 | 1005.0 |
| 20260504005004 | 20 | 292 | 0.0 | 1.6 | 0.00 | 0.00 | 0.00 | 27 | 1005.1 |
| 20260504004004 | 21 | 300 | 1.6 | 4.8 | 0.00 | 0.00 | 0.00 | 27 | 1005.2 |
| 20260504003004 | 21 | 253 | 3.2 | 9.7 | 0.00 | 0.00 | 0.00 | 27 | 1005.4 |
| 20260504002004 | 21 | 267 | 4.8 | 3.2 | 0.00 | 0.00 | 0.00 | 26 | 1005.2 |
| 20260504001003 | 21 | 250 | 0.0 | 0.0 | 0.00 | 0.00 | 0.00 | 25 | 1005.3 |
| 20260504000004 | 21 | 294 | 3.2 | 14.5 | 0.00 | 0.00 | 0.00 | 25 | 1005.4 |
| 20260503235003 | 21 | 263 | 1.6 | 0.0 | 0.00 | 0.00 | 0.00 | 26 | 1005.4 |
| 20260503234004 | 21 | 255 | 3.2 | 4.8 | 0.00 | 0.00 | 0.00 | 26 | 1005.5 |
| 20260503233003 | 21 | 223 | 4.8 | 11.3 | 0.00 | 0.00 | 0.00 | 26 | 1005.7 |
| 20260503232003 | 22 | 237 | 1.6 | 6.4 | 0.00 | 0.00 | 0.00 | 25 | 1005.7 |
| 20260503231003 | 22 | 298 | 3.2 | 16.1 | 0.00 | 0.00 | 0.00 | 27 | 1005.9 |
| 20260503230006 | 22 | 351 | 3.2 | 4.8 | 0.00 | 0.00 | 0.00 | 26 | 1006.0 |
| 20260503225005 | 22 | 280 | 1.6 | 4.8 | 0.00 | 0.00 | 0.00 | 24 | 1006.3 |
| 20260503224005 | 22 | 251 | 4.8 | 11.3 | 0.00 | 0.00 | 0.00 | 26 | 1006.2 |
| 20260503223018 | 22 | 234 | 0.0 | 3.2 | 0.00 | 0.00 | 0.00 | 27 | 1006.3 |
| 20260503222004 | 22 | 288 | 1.6 | 0.0 | 0.00 | 0.00 | 0.00 | 28 | 1006.4 |
| 20260503221003 | 22 | 338 | 1.6 | 4.8 | 0.00 | 0.00 | 0.00 | 27 | 1006.6 |
| 20260503220003 | 22 | 355 | 1.6 | 3.2 | 0.00 | 0.00 | 0.00 | 28 | 1006.7 |
| 20260503215019 | 22 | 316 | 1.6 | 6.4 | 0.00 | 0.00 | 0.00 | 27 | 1006.7 |
| 20260503214018 | 22 | 259 | 1.6 | 4.8 | 0.00 | 0.00 | 0.00 | 27 | 1006.9 |
| 20260503213005 | 22 | 299 | 3.2 | 11.3 | 0.00 | 0.00 | 0.00 | 28 | 1007.1 |
| 20260503212003 | 21 | 289 | 4.8 | 12.9 | 0.00 | 0.00 | 0.00 | 28 | 1007.2 |
| 20260503211003 | 21 | 19 | 3.2 | 4.8 | 0.00 | 0.00 | 0.00 | 29 | 1007.6 |
| 20260503210004 | 21 | 312 | 6.4 | 16.1 | 0.00 | 0.00 | 0.00 | 28 | 1007.7 |
| 20260503205003 | 21 | 323 | 6.4 | 17.7 | 0.00 | 0.00 | 0.00 | 31 | 1007.9 |
| 20260503204003 | 21 | 288 | 4.8 | 9.7 | 0.00 | 0.00 | 0.00 | 30 | 1008.0 |
| 20260503203019 | 21 | 275 | 4.8 | 8.0 | 0.00 | 0.00 | 0.00 | 31 | 1008.1 |
| 20260503202005 | 21 | 348 | 6.4 | 12.9 | 0.00 | 0.00 | 0.00 | 33 | 1008.3 |
| 20260503201004 | 21 | 318 | 9.7 | 17.7 | 0.00 | 0.00 | 0.00 | 33 | 1008.6 |
| 20260503200004 | 20 | 298 | 3.2 | 14.5 | 0.00 | 0.00 | 0.00 | 33 | 1008.8 |
| 20260503195004 | 20 | 293 | 4.8 | 9.7 | 0.00 | 0.00 | 0.00 | 34 | 1008.9 |
| 20260503194004 | 20 | 292 | 6.4 | 8.0 | 0.00 | 0.00 | 0.00 | 36 | 1008.9 |
| 20260503193004 | 20 | 253 | 8.0 | 14.5 | 0.00 | 0.00 | 0.00 | 35 | 1008.9 |
| 20260503192004 | 20 | 337 | 8.0 | 17.7 | 0.00 | 0.00 | 0.00 | 36 | 1009.1 |
| 20260503191004 | 20 | 305 | 4.8 | 11.3 | 0.00 | 0.00 | 0.00 | 36 | 1009.2 |
| 20260503190020 | 20 | 304 | 6.4 | 14.5 | 0.00 | 0.00 | 0.00 | 37 | 1009.7 |
| 20260503185004 | 20 | 304 | 8.0 | 14.5 | 0.00 | 0.00 | 0.00 | 38 | 1009.7 |
| 20260503184004 | 19 | 275 | 6.4 | 16.1 | 0.00 | 0.00 | 0.00 | 36 | 1009.9 |
| 20260503183005 | 19 | 323 | 8.0 | 17.7 | 0.00 | 0.00 | 0.00 | 37 | 1009.8 |
| 20260503182004 | 19 | 303 | 6.4 | 12.9 | 0.00 | 0.00 | 0.00 | 37 | 1010.0 |
| 20260503181003 | 19 | 350 | 3.2 | 12.9 | 0.00 | 0.00 | 0.00 | 39 | 1010.0 |
| 20260503180004 | 19 | 307 | 8.0 | 11.3 | 0.00 | 0.00 | 0.00 | 38 | 1010.1 |
| 20260503175003 | 18 | 306 | 4.8 | 11.3 | 0.00 | 0.00 | 0.00 | 39 | 1010.2 |
| 20260503174004 | 18 | 309 | 8.0 | 22.5 | 0.00 | 0.00 | 0.00 | 38 | 1010.3 |
| 20260503173004 | 18 | 346 | 9.7 | 19.3 | 0.00 | 0.00 | 0.00 | 39 | 1010.3 |
| 20260503172003 | 18 | 298 | 9.7 | 17.7 | 0.00 | 0.00 | 0.00 | 39 | 1010.4 |
| 20260503171005 | 18 | 290 | 4.8 | 14.5 | 0.00 | 0.00 | 0.00 | 41 | 1010.6 |